DELTA 1 DEB, 14510

Orbit data source: Space-Track

DELTA 1 DEB, 14510 is space debris in LEO originally from a launch on Thu, 29 Jul 1976 UTC launched from the Air Force Western Test Range (AFWTR). Debris objects in space refer to the collection of defunct objects orbiting the Earth. Examples of debris include non-operational satellites, rocket bodies, and fragments generated from explosions, collisions, or faulty payload assembly.

Loading next visibility...
Identifier
14510, 1976-077ER
Orbit
LEO
Country
Flag of USUS
Related business
Manufacturer
Unknown
Mission
Spacecraft
Bus & Motor
Unknown
Mass
Unknown
Launch date (UTC)
1976-07-29 (50 years ago)
Launch vehicle
Unknown
Launch site
Air Force Western Test Range (AFWTR)
Object type
Payload
Rocket body
Debris
Shape & HBR
Unknown shape, 0.1 m
Radar Cross Section
Medium (>0.1 m² and <1 m²)

Expand to show TLE details & history
Last TLE update: 1 day ago

TLE from 1 day ago
0 DELTA 1 DEB
1 14510U 76077ER  26255.30010845  .00000088  00000-0  14957-2 0  9993
2 14510 102.4324 177.9059 0222548  65.5219  83.6479 11.99460465938190
Epoch: 2026-09-12T07:12Z
TLE epoch observation values (Epoch: 2026-09-12T07:12:09.370Z)
Latitude
27.60724°
Longitude
-94.85593°
Altitude
1,670.394 km
Speed
7.048 km/s
True Right ascension
00h 17m 58s
True Declination
27° 28' 56"
Sunlit
Object was in full shadow at epoch
Visualization orbit readout
Latitude
Unknown
Longitude
Unknown
Altitude
Unknown
Speed
Unknown
Apparent Right ascension
Unknown
Apparent Declination
Unknown
Sunlit
N/A
Visualization observer readout
Local Sidereal Time
06:52:16
Azimuth
Unknown
Elevation
Unknown
Doppler factor
Unknown
Orbital elements
Apogee altitude
1,860.282 km
Perigee altitude
1,501.576 km
Semi-major axis
8,059.066 km
Eccentricity
0.02225
Inclination
102.4324°
RAAN
177.9059°
Arg. of periapsis
65.5219°
True anomaly
86.18945°
Mean anomaly
83.6479°
Eccentric anomaly
84.91799°
Mean motion
2.99996 °/min
Orbital period
120 mins
BSTAR
0.0014957
Loading maneuver chart data...
Computing Atmospheric mass density...
Loading historical data...
Loading historical data...
Loading historical data...
Loading historical data...
Loading historical data...
Loading historical data...
Loading historical data...

Documentation

Showing up to 5 results
|